Regional Weather Roundup
Issued by NWS Mt. Holly, NJ

Home | Current Version | Previous Version | Text Only | Print | Product List | Glossary On
Versions: 1 2 3 4 5 6 7 8 9 10 11 12 13 14 15 16 17 18 19 20 21 22 23 24 25 26 27 28 29 30 31 32 33 34 35 36 37 38 39 40 41 42 43 44 45 46 47 48 49 50
000
ASUS41 KPHI 191410
RWRPHI

REGIONAL WEATHER ROUNDUP
NATIONAL WEATHER SERVICE MOUNT HOLLY NJ
1000 AM EDT FRI SEP 19 2014

NOTE:  "FAIR" INDICATES FEW OR NO CLOUDS BELOW 12,000 FEET WITH NO
SIGNIFICANT WEATHER AND/OR OBSTRUCTIONS TO VISIBILITY.

 * = STATION DOES NOT REPORT PRECIPITATION (E.G. RAIN, SNOW, ETC.)
        OR FOG.

NJZ015>026-191500-
SOUTHERN NEW JERSEY

CITY           SKY/WX    TMP DP  RH WIND       PRES   REMARKS
POMONA         CLOUDY    64  57  78 NE17G26   30.26R
RIO GRANDE*    SUNNY     70  57  64 NE15G21   30.25R
MILLVILLE      SUNNY     65  56  72 E12       30.26R
WRIGHTSTOWN    CLOUDY    62  52  70 E15       30.28R
MOUNT HOLLY    PTSUNNY   61  51  70 NE10G20   30.30R
TRENTON        MOSUNNY   59  48  67 NE12      30.31R

$$
NJZ001>014-191500-
NORTHERN NEW JERSEY

CITY           SKY/WX    TMP DP  RH WIND       PRES   REMARKS
SUSSEX         SUNNY     55  43  63 NE7       30.35S
ANDOVER*         N/A     53  45  74 NE5       30.34R
MORRISTOWN     MOSUNNY   59  48  67 NE9G16    30.34R
NEWARK         PTSUNNY   59  39  47 NE12      30.33R
TETERBORO      MOSUNNY   59  37  44 NE10      30.33R
CALDWELL       MOSUNNY   56  42  59 E12       30.34R
ALLAIRE*       SUNNY     61  45  55 NE16      30.31R
TOMS RIVER*    CLOUDY    61  52  72 NE14      30.31R

$$
PAZ043-044-047-054-055-060>062-066>071-191500-
EASTERN PENNSYLVANIA

CITY           SKY/WX    TMP DP  RH WIND       PRES   REMARKS
PHILADELPHIA   PTSUNNY   63  51  65 NE15      30.30R
NORTH PHILA    MOSUNNY   63  49  60 NE15      30.32R
BLUE BELL      CLOUDY    61  52  72 E9G17     30.30R
DOYLESTOWN     MOSUNNY   58  49  72 NE9       30.31R
QUAKERTOWN*    SUNNY     57  46  67 NE8       30.32R
POTTSTOWN      SUNNY     59  48  67 NE8       30.32R
LANCASTER      SUNNY     60  48  64 E9        30.30R
COATESVILLE    SUNNY     57  50  77 NE7       30.30R
READING        SUNNY     59  48  67 NE6       30.30R
ALLENTOWN      SUNNY     58  45  62 NE10      30.33R
MOUNT POCONO   CLOUDY    47  43  86 E8        30.32R
HAZLETON       SUNNY     52  43  71 E5        30.33S
WILKES BARRE   SUNNY     54  42  64 VRB3      30.32R

$$
DEZALL-MDZ008-012-015-019-020-191500-
DELAWARE AND EASTERN MARYLAND

CITY           SKY/WX    TMP DP  RH WIND       PRES   REMARKS
WILMINGTON     SUNNY     64  53  67 NE16G25   30.29R
DOVER          SUNNY     65  58  76 NE14      30.24R
GEORGETOWN     SUNNY     69  60  73 E13       30.25R
EASTON         MOSUNNY   66  57  72 E8        30.29R
PATUXENT       MOSUNNY   68  58  70 N9        30.24R
OCEAN CITY     SUNNY     71  61  70 NE7       30.23R
WALLOPS ISLAND SUNNY     73  60  63 N6        30.23R
CAMBRIDGE      SUNNY     64  57  77 NE6       30.24S
SALISBURY      SUNNY     71  59  65 NE5       30.23R

$$
PAZ001-021-NYZ056-072-MDZ011-DCZ001-191500-
OTHER NEARBY LOCATIONS

CITY           SKY/WX    TMP DP  RH WIND       PRES   REMARKS
HARRISBURG     PTSUNNY   61  48  62 E6        30.30R
STATE COLLEGE  PTSUNNY   50  46  87 NE6       30.30S
WILLIAMSPORT   SUNNY     55  42  61 CALM      30.32R
BINGHAMTON     SUNNY     45  40  82 E6        30.33R
NEW YORK CITY  MOSUNNY   57  40  52 NE9G18    30.36R
BALTIMORE      MOSUNNY   63  51  65 E13       30.27R
WASHINGTON DC  PTSUNNY   66  53  63 NE10      30.26S

$$


USA.gov is the U.S. government's official web portal to all federal, state and local government web resources and services.